831  
AXUS43 KGID 240202  
MISGRI  
 
GID CWA HOURLY WEATHER ROUNDUP  
NATIONAL WEATHER SERVICE HASTINGS NE  
800 PM CST FRI FEB 23 2018  
 
NOTE: "FAIR" INDICATES FEW OR NO CLOUDS BELOW 12,000 FEET WITH NO  
SIGNIFICANT WEATHER AND/OR OBSTRUCTIONS TO VISIBILITY.  
   
..SOUTH CENTRAL NEBRASKA
 
 
 
CITY SKY/WX TMP DP RH WIND PRES REMARKS  
GRAND ISLAND CLOUDY 23 19 85 N8 30.21S WCI 14  
KEARNEY CLOUDY 23 20 88 NE12 30.18F WCI 12  
HASTINGS CLOUDY 25 20 81 NE13 30.20R WCI 14  
ORD CLEAR 17 13 84 N3 30.20S  
YORK CLEAR 21 21 100 NE6 30.23R WCI 14  
AURORA CLEAR 22 19 91 NE8 30.21S WCI 12  
LEXINGTON CLOUDY 25 21 87 E7 30.17S WCI 17  
HOLDREGE CLOUDY 24 23 96 NE13 30.16S WCI 12  
HEBRON CLOUDY 31 26 80 E8 30.22F WCI 24  
   
..NEBRASKA PANHANDLE
 
 
 
CITY SKY/WX TMP DP RH WIND PRES REMARKS  
CHADRON CLEAR 9 4 80 CALM 30.08S  
ALLIANCE CLEAR 10 8 92 E7 30.03F WCI -1  
SCOTTSBLUFF PTCLDY 19 13 77 E9 30.02F WCI 8  
SIDNEY PTCLDY 20 15 81 E9 30.02S WCI 9  
   
..WESTERN AND NORTH CENTRAL NEBRASKA
 
 
 
CITY SKY/WX TMP DP RH WIND PRES REMARKS  
VALENTINE CLEAR 12 8 84 SE5 30.17S WCI 4  
AINSWORTH CLEAR 12 11 95 CALM 30.17F  
ONEILL CLEAR 11 10 96 CALM 30.23S  
BROKEN BOW PTCLDY 12 7 80 N7 30.17S WCI 1  
IMPERIAL CLEAR 20 19 96 NE7 30.06F WCI 11  
NORTH PLATTE CLEAR 19 13 77 E8 30.13F WCI 9  
MCCOOK PTCLDY 26 22 84 E12 30.10F WCI 16  
   
..EASTERN NEBRASKA
 
 
 
CITY SKY/WX TMP DP RH WIND PRES REMARKS  
NORFOLK CLOUDY 17 14 88 E5 30.24S WCI 10  
SO SIOUX CITY CLOUDY 20 18 92 N8 30.29F WCI 10  
TEKAMAH CLOUDY 21 19 92 N14 30.29S WCI 8  
COLUMBUS CLEAR 21 18 88 NE8 30.26S WCI 11  
ALBION CLEAR 17 14 88 CALM 30.24R  
OMAHA EPPLEY CLOUDY 24 20 84 NE10 30.28F FOG WCI 14  
MILLARD CLOUDY 26 21 82 NE7 30.28S WCI 18  
LINCOLN CLOUDY 26 21 81 NE13 30.27R WCI 15  
NEBRASKA CITY CLOUDY 28 27 96 E10 30.27R WCI 18  
BEATRICE CLOUDY 29 25 87 NE8 30.24F WCI 21  
FALLS CITY CLOUDY 33 28 81 NE7 30.24F WCI 27  
   
..NORTHERN KANSAS
 
 
 
CITY SKY/WX TMP DP RH WIND PRES REMARKS  
GOODLAND CLOUDY 26 19 74 SE12 30.02R WCI 16  
HILL CITY CLOUDY 25 20 81 E6 30.12S WCI 18  
NORTON CLOUDY 28 19 69 E17 30.12R WCI 16  
PHILLIPSBURG CLOUDY 28 23 80 NE10 30.17R WCI 19  
SMITH CENTER MOCLDY 27 23 86 NE12 30.18R WCI 16  
BELOIT CLOUDY 32 27 80 NE7 30.18S WCI 26  
RUSSELL CLOUDY 33 28 81 E6 30.12R WCI 28  
CONCORDIA CLOUDY 31 26 82 NE10 30.17F WCI 22  
SALINA CLOUDY 33 28 81 E10 30.18F WCI 25  
TOPEKA CLOUDY 34 31 88 E6 30.23S WCI 29  
 
CLICK HERE TO GO TO PREVIOUS BULLETINS.

The Nexlab NE Page
The Nexlab KS Page Main Text Page